Ногинск

Россия / Красноярский край     64°29′13″N   91°14′34″E
темп.,
°C
ветер,
м/с
пор.,
м/с
влажн.,
%
обл.,
%
осадки,
мм/ч
давл.,
гПа
погр.,
м
15 апреля, чт
чт1501:00−11зюз2297100 0.0 101530
04:00−10юз2397100 0.0 101670
07:00−9юз2690100 0.0 1014358
10:00−7ю41091100 0.9 1009706
13:00−4ююз61692100 3.0 1002971
16:00−1юз91993100 3.1 9951010
19:00+1зюз91897100 7.1 9901139
22:00+1з81697100 1.2 9891344
16 апреля, пт
пт1601:00−3з81587100 1.6 9911207
04:00−6з9188148 0.1 9911314
07:00−11з81583100 0.1 9951012
10:00−13зсз91682100 0.0 998972
13:00−13зсз9157781 0.0 1001941
16:00−15зсз91378100 0.0 10041003
19:00−18зсз81484100 0.0 1008956
22:00−20зсз71586100 0.0 1009831
17 апреля, сб
сб1701:00−22з41387100 0.0 1011664
04:00−24з399099 0.0 1013512
07:00−23з3108797 0.0 1014565
10:00−19з4107889 0.0 1016672
13:00−15зсз711699 0.0 1017859
16:00−13зсз686896 0.0 10171014
19:00−13зсз267868 0.0 1017740
22:00−20вюв1197100 0.0 10189
18 апреля, вс
вс1801:00−19в1197100 0.0 101724
04:00−17в2296100 0.1 101694
07:00−16в2394100 0.3 1016170
10:00−13в2489100 0.4 1015343
13:00−9вюв3582100 0.6 1014664
16:00−7в51085100 0.2 1013688
19:00−7всв51293100 1.4 1013627
22:00−8вюв2396100 1.1 101379
19 апреля, пн
пн1901:00−9з0097100 2.3 101513
04:00−15юз119966 0.1 10169
07:00−13в1194100 0.2 101670
10:00−8в2381100 0.1 1014698
13:00−5в4471100 0.1 10131085
16:00−5в5876100 0.1 10101238
19:00−5всв51079100 0.1 1008792
22:00−7св51281100 0.0 1006675